ELEKTRON 1 DEB, 750

Orbit data source: Space-Track

ELEKTRON 1 DEB, 750 is space debris in LEO originally from a launch on Thu, 30 Jan 1964 UTC launched from the Tyuratam Missile And Space Complex (TTMTR). Debris objects in space refer to the collection of defunct objects orbiting the Earth. Examples of debris include non-operational satellites, rocket bodies, and fragments generated from explosions, collisions, or faulty payload assembly.

Loading next visibility...
Identifier
750, 1964-006C
Orbit
LEO
Last TLE update
21 hours ago
Origin
Manufacturer
OKB-1
Mission
Spacecraft
Bus & Motor
ADAPTER, Unknown motor
Mass
Unknown
Launch date (UTC)
1964-01-30 (61 years ago)
Launch vehicle
Unknown
Launch site
Tyuratam Missile And Space Complex (TTMTR)
Object type
Payload
Rocket body
Debris
Shape & HBR
Unknown
Radar Cross Section
Medium (>0.1 m² and <1 m²)

Expand to show TLE details & history

TLE from 21 hours ago
0 ELEKTRON 1 DEB
1 00750U 64006C   25169.28437592  .00005868  00000-0  67318-3 0  9996
2 00750  60.7627 146.7344 1429618 249.7965  94.3932 12.37627619801399
Epoch: 2025-06-18T06:49Z
TLE epoch observation values (Epoch: 2025-06-18T06:49:30.079Z)
Latitude
-0.00004°
Longitude
137.59043°
Altitude
1,760.355 km
Speed
6.892 km/s
True Right ascension
09h 46m 56s
True Declination
0° 00' 00"
Sunlit
Object was in daylight at epoch
Visualization orbit readout
Latitude
-53.44983°
Longitude
4.15988°
Altitude
409.101 km
Speed
8.195 km/s
Apparent Right ascension
01h 45m 11s
Apparent Declination
-47° 19' 16"
Sunlit
Object is in daylight
Visualization observer readout
Local Sidereal Time
14:28:02
Azimuth
137.282° SSE
Elevation
-79.296°
Doppler factor
1
Orbital elements
Apogee altitude
2,644.403 km
Perigee altitude
387.322 km
Semi-major axis
7,894 km
Eccentricity
0.14296
Inclination
60.7627°
RAAN
146.7344°
Arg. of periapsis
249.7965°
True anomaly
Unknown
Mean anomaly
94.3932°
Eccentric anomaly
Unknown
Mean motion
3.09455 °/min
Orbital period
116.33 mins
BSTAR
0.00067318
Loading maneuver chart data...
Loading SW <> Apogee altitude chart data...

ELEKTRON 1 DEB Visibility forecast

Observer location: undefined°, undefined°

Span
Click to sort rows by Start time (UTC) header in descending order
Start Az.
Max El. time (UTC)
Max El. Az.
Max El.
End time (UTC)
End Az.
24 mins2025-06-19 04:32:00.789Z299.656° NW2025-06-19 04:45:00.789Z358.334° N27.799°2025-06-19 04:56:00.789Z54.013° ENE
22 mins2025-06-19 06:39:00.789Z322.34° NNW2025-06-19 06:51:00.789Z22.536° NE33.262°2025-06-19 07:01:00.789Z90.957° ESE
21 mins2025-06-19 08:42:00.789Z321.389° NNW2025-06-19 08:55:00.789Z156.496° SSE44.982°2025-06-19 09:03:00.789Z145.001° SSE
14 mins2025-06-19 10:46:00.789Z302.926° NW2025-06-19 10:54:00.789Z259.094° W21.972°2025-06-19 11:00:00.789Z214.205° SW
15 mins2025-06-19 21:44:00.789Z128.284° SE2025-06-19 21:50:00.789Z98.008° ESE18.511°2025-06-19 21:59:00.789Z60.298° ENE
26 mins2025-06-19 23:38:00.789Z196.301° SSW2025-06-19 23:49:00.789Z119.076° SE42.978°2025-06-20 00:04:00.789Z41.108° NE
26 mins2025-06-20 01:40:00.789Z250.147° W2025-06-20 01:52:00.789Z324.528° NNW39.238°2025-06-20 02:06:00.789Z36.914° NE
|